This is the latest recevied weather packets stored in our database for station/object DG1JLA-3. If no packets are shown the sender has not sent any weather packets the latest 1 day(s).
| Time | Temp. | Humidity | Pressure | Rain* | Wind** | Luminosity | Snow |
|---|---|---|---|---|---|---|---|
| 1777982391 | 16.67° C | 79% | 1010.2 hPa | 0 mm | 1.34 m/s, 43° | - | - |
| 1777982091 | 17.22° C | 79% | 1010.2 hPa | 0 mm | 0.45 m/s, 41° | - | - |
| 1777981791 | 16.67° C | 80% | 1010.2 hPa | 0 mm | 0.89 m/s, 13° | - | - |
| 1777981491 | 16.67° C | 81% | 1010.2 hPa | 0 mm | 1.34 m/s, 30° | - | - |
| 1777981191 | 16.11° C | 82% | 1010.2 hPa | 0 mm | 1.34 m/s, 19° | - | - |
| 1777980891 | 16.11° C | 81% | 1010.2 hPa | 0 mm | 1.34 m/s, 27° | - | - |
| 1777980591 | 16.11° C | 81% | 1010.2 hPa | 0 mm | 0.89 m/s, 18° | - | - |
| 1777980291 | 16.11° C | 82% | 1010.2 hPa | 0 mm | 0.89 m/s, 334° | - | - |
| 1777979991 | 16.11° C | 81% | 1010.3 hPa | 0 mm | 0.89 m/s, 316° | - | - |
| 1777979691 | 16.11° C | 81% | 1010.3 hPa | 0 mm | 0.45 m/s, 311° | - | - |
| 1777979391 | 16.11° C | 82% | 1010.4 hPa | 0 mm | 0.45 m/s, 29° | - | - |
| 1777979091 | 16.11° C | 81% | 1010.5 hPa | 0 mm | 0.45 m/s, 272° | - | - |
| 1777978791 | 16.11° C | 81% | 1010.4 hPa | 0 mm | 0.45 m/s, 266° | - | - |
| 1777978491 | 16.11° C | 81% | 1010.5 hPa | 0 mm | 0.45 m/s, 309° | - | - |
| 1777978191 | 16.11° C | 81% | 1010.6 hPa | 0 mm | 0.45 m/s, 231° | - | - |
| 1777977891 | 16.11° C | 82% | 1010.6 hPa | 0 mm | 0.45 m/s, 298° | - | - |
| 1777977591 | 15.56° C | 82% | 1010.6 hPa | 0 mm | 0.45 m/s, 272° | - | - |
| 1777977291 | 15.56° C | 82% | 1010.7 hPa | 0 mm | 0.45 m/s, 92° | - | - |
| 1777976991 | 15.56° C | 82% | 1010.7 hPa | 0 mm | 0.45 m/s, 290° | - | - |
| 1777976691 | 15.56° C | 82% | 1010.6 hPa | 0 mm | 0 m/s | - | - |
| 1777976391 | 15.56° C | 84% | 1010.7 hPa | 0 mm | 0 m/s | - | - |
| 1777976091 | 15.56° C | 84% | 1010.6 hPa | 0 mm | 0 m/s | - | - |
| 1777975791 | 15.56° C | 84% | 1010.7 hPa | 0 mm | 0 m/s | - | - |
| 1777975491 | 15.56° C | 84% | 1010.7 hPa | 0 mm | 0 m/s | - | - |
| 1777975191 | 15.56° C | 84% | 1010.6 hPa | 0 mm | 0.45 m/s, 8° | - | - |
* Rain latest hour (hover to see other rain measurements)
** Current wind speed in m/s (hover to see current wind gust speed)